COSMOS 2228 (22286 NORAD) Tracking and Keplerian Element Data

This shows tracking and keplerian element data for the satellite.

Feedback or suggestion? Click here.




ElementValue
Catalog22286
NameCOSMOS 2228
Epoch Orbit71641
Epoch Day34.75381297
Epoch Year2025
RAAN258.5536
Inclination82.5161
Eccentricity0.0017978
Argument of Perigee201.333
Mean Anonmoly158.7144
Mean Motion14.94703709
Decay Rate4.187E-05
L11 22286U 92094A 25034.75381297 .00004187 00000+0 38246-3 0 9995
L22 22286 82.5161 258.5536 0017978 201.3330 158.7144 14.94703709716416



Live tracking and technical data element details for COSMOS 2228 (NORAD 22286). COSMOS 2228 can be tracked NOW for your location showing map with azimuth and elevation plus other details from your city location.







IsCatalogInMostPopularTable: catalog: 22286, numindb: 487
Update: records affected: 1



GetName: 22286 COSMOS 2228

Hit Count: updated at: Sat, 17 May 2025 09:40:32 GMT